TimePDT,TemperatureF,Dew PointF,Humidity,Sea Level PressureIn,VisibilityMPH,Wind Direction,Wind SpeedMPH,Gust SpeedMPH,PrecipitationIn,Events,Conditions,WindDirDegrees,DateUTC
12:53 AM,57.9,55.0,90,30.13,10.0,Calm,Calm,-,N/A,,Overcast,0,2013-08-03 07:53:00
1:16 AM,57.9,55.0,90,30.13,10.0,WSW,3.5,-,N/A,,Overcast,250,2013-08-03 08:16:00
1:53 AM,57.9,55.9,93,30.13,10.0,Calm,Calm,-,N/A,,Overcast,0,2013-08-03 08:53:00
2:53 AM,57.0,54.0,89,30.13,10.0,North,3.5,-,N/A,,Overcast,10,2013-08-03 09:53:00
3:00 AM,57.0,54.0,89,30.13,10.0,Calm,Calm,-,N/A,,Overcast,0,2013-08-03 10:00:00
3:53 AM,55.9,54.0,93,30.13,10.0,WNW,3.5,-,N/A,,Overcast,290,2013-08-03 10:53:00
4:53 AM,57.0,55.0,93,30.13,10.0,Calm,Calm,-,N/A,,Overcast,0,2013-08-03 11:53:00
5:08 AM,57.0,55.0,93,30.13,10.0,Calm,Calm,-,N/A,,Overcast,0,2013-08-03 12:08:00
5:53 AM,57.0,54.0,89,30.13,10.0,Calm,Calm,-,N/A,,Overcast,0,2013-08-03 12:53:00
6:37 AM,57.0,55.0,93,30.13,10.0,SSW,3.5,-,N/A,,Overcast,210,2013-08-03 13:37:00
6:53 AM,57.0,55.0,93,30.14,10.0,Calm,Calm,-,N/A,,Overcast,0,2013-08-03 13:53:00
7:02 AM,57.9,55.0,90,30.14,10.0,Calm,Calm,-,N/A,,Overcast,0,2013-08-03 14:02:00
7:53 AM,57.9,54.0,87,30.14,10.0,WNW,3.5,-,N/A,,Overcast,300,2013-08-03 14:53:00
8:53 AM,57.9,55.0,90,30.14,10.0,WNW,4.6,-,N/A,,Overcast,290,2013-08-03 15:53:00
9:06 AM,59.0,54.0,83,30.14,10.0,WNW,4.6,-,N/A,,Overcast,300,2013-08-03 16:06:00
9:53 AM,59.0,55.0,87,30.15,10.0,North,3.5,-,N/A,,Overcast,10,2013-08-03 16:53:00
10:12 AM,60.1,55.0,83,30.15,10.0,NNW,4.6,-,N/A,,Overcast,340,2013-08-03 17:12:00
10:32 AM,59.0,55.0,87,30.15,10.0,WNW,5.8,-,N/A,,Overcast,300,2013-08-03 17:32:00
10:53 AM,60.1,55.0,83,30.15,10.0,NW,4.6,-,N/A,,Overcast,310,2013-08-03 17:53:00
11:53 AM,62.1,55.0,78,30.15,10.0,North,5.8,-,N/A,,Overcast,360,2013-08-03 18:53:00
12:53 PM,64.0,55.0,73,30.15,10.0,North,6.9,-,N/A,,Overcast,10,2013-08-03 19:53:00
1:53 PM,66.0,55.0,68,30.15,10.0,North,6.9,-,N/A,,Overcast,10,2013-08-03 20:53:00
2:53 PM,64.9,55.0,70,30.14,10.0,North,5.8,-,N/A,,Overcast,360,2013-08-03 21:53:00
3:53 PM,64.9,54.0,68,30.12,10.0,NW,5.8,-,N/A,,Overcast,310,2013-08-03 22:53:00
4:53 PM,62.1,54.0,75,30.12,10.0,NW,8.1,-,N/A,,Overcast,310,2013-08-03 23:53:00
5:53 PM,62.1,55.0,78,30.10,10.0,NW,6.9,-,N/A,,Overcast,310,2013-08-04 00:53:00
6:53 PM,60.1,54.0,80,30.10,10.0,WNW,8.1,-,N/A,,Scattered Clouds,300,2013-08-04 01:53:00
7:53 PM,60.1,54.0,80,30.09,10.0,WNW,4.6,-,N/A,,Overcast,300,2013-08-04 02:53:00
8:53 PM,57.9,54.0,87,30.09,10.0,NW,4.6,-,N/A,,Overcast,320,2013-08-04 03:53:00
9:53 PM,57.0,54.0,89,30.10,10.0,West,3.5,-,N/A,,Overcast,280,2013-08-04 04:53:00
10:53 PM,55.9,53.1,90,30.09,10.0,NW,6.9,-,N/A,,Clear,320,2013-08-04 05:53:00
11:33 PM,54.0,52.0,93,30.09,10.0,WNW,5.8,-,N/A,,Partly Cloudy,300,2013-08-04 06:33:00
11:53 PM,54.0,53.1,97,30.09,10.0,WNW,5.8,-,N/A,,Mostly Cloudy,290,2013-08-04 06:53:00